FW7184 Weather Reports


Display with metric or nautical units.
time (UTC)temp
F
wind
direction
speed
MPH
gust
MPH
rain 1hr
in
rain 24hr
in
rain mn
in
humidity
%
barometer
mb
20260901222537 76 184 0.0 0.0 0.00 1.61 1.61 96 1014.8
20260901222032 76 192 0.0 0.0 0.00 1.61 1.61 95 1014.8
20260901221529 77 186 0.0 0.0 0.00 1.61 1.61 95 1015.0
20260901221023 77 197 0.0 0.0 0.00 1.61 1.61 94 1014.8
20260901220518 77 200 0.0 0.0 0.00 1.61 1.61 94 1015.0
20260901220016 77 192 0.0 0.0 0.00 1.61 1.61 93 1015.1
20260901215515 77 199 0.0 0.0 0.00 1.61 1.61 94 1015.1
20260901215014 77 200 0.0 0.0 0.00 1.61 1.61 94 1015.1
20260901214514 77 199 0.0 0.0 0.00 1.61 1.61 94 1014.9
20260901214008 77 200 0.0 0.0 0.00 1.61 1.61 94 1015.0
20260901213502 77 200 0.0 0.0 0.00 1.61 1.61 94 1015.0
20260901213002 77 200 0.0 0.0 0.00 1.61 1.61 94 1015.0
20260901212457 76 200 0.0 0.0 0.00 1.61 1.61 94 1015.1
20260901211953 77 200 0.0 0.0 0.00 1.61 1.61 94 1015.1
20260901211449 77 199 0.0 0.0 0.00 1.61 1.61 95 1015.2
20260901210945 77 207 0.0 0.0 0.00 1.61 1.61 94 1015.0
20260901210440 77 198 0.0 0.0 0.00 1.61 1.61 94 1015.0
20260901205937 77 200 0.0 0.0 0.00 1.61 1.61 94 1015.0
20260901205436 77 200 0.0 0.0 0.00 1.61 1.61 93 1015.0
20260901204931 77 199 0.0 0.0 0.00 1.61 1.61 93 1015.1
20260901204428 77 200 0.0 0.0 0.00 1.61 1.61 92 1015.0
20260901203922 77 200 0.0 0.0 0.00 1.61 1.61 92 1015.2
20260901203417 77 202 0.0 0.0 0.00 1.61 1.61 93 1015.0
20260901202912 77 201 0.0 0.0 0.00 1.61 1.61 92 1015.1
20260901202406 77 203 0.0 0.0 0.00 1.61 1.61 92 1015.0
20260901201903 77 202 0.0 0.0 0.00 1.61 1.61 93 1015.1
20260901201402 77 204 0.0 0.0 0.00 1.61 1.61 93 1015.1
20260901200856 77 202 0.0 0.0 0.00 1.61 1.61 93 1014.9
20260901200352 77 200 0.0 0.0 0.00 1.61 1.61 93 1014.8
20260901195850 77 200 0.0 0.0 0.00 1.61 1.61 93 1015.1
20260901195349 77 203 0.0 0.0 0.00 1.61 1.61 93 1015.1
20260901194845 77 195 0.0 0.0 0.00 1.61 1.61 91 1015.0
20260901194338 77 207 0.0 0.0 0.00 1.61 1.61 91 1015.2
20260901193836 77 206 0.0 0.0 0.00 1.61 1.61 94 1015.3
20260901193334 76 201 1.0 1.0 0.00 1.61 1.61 94 1015.2
20260901192829 76 206 0.0 0.0 0.00 1.61 1.61 99 1015.1
20260901192324 75 210 0.0 0.0 0.00 1.61 1.61 99 1015.4
20260901191821 75 229 1.0 1.0 0.00 1.61 1.61 99 1015.2
20260901191316 75 215 0.0 0.0 0.00 1.61 1.61 99 1015.2
20260901190812 75 214 0.0 0.0 0.00 1.61 1.61 99 1015.2
20260901190311 75 208 1.0 2.0 0.00 1.61 1.61 99 1015.1
20260901185810 75 205 0.0 0.0 0.00 1.61 1.61 99 1015.0
20260901185309 74 209 0.0 1.0 0.00 1.61 1.61 99 1015.0
20260901184804 75 216 0.0 1.0 0.00 1.61 1.61 99 1015.0
20260901184300 75 210 0.0 0.0 0.00 1.61 1.61 99 1015.2
20260901183755 74 199 0.0 0.0 0.00 1.61 1.61 99 1015.1
20260901183254 74 212 0.0 0.0 0.00 1.61 1.61 99 1015.2
20260901182751 73 210 0.0 0.0 0.00 1.61 1.61 99 1015.1
20260901182250 73 204 0.0 0.0 0.00 1.61 1.61 99 1015.2
20260901181745 73 238 1.0 1.0 0.00 1.61 1.61 99 1015.4
20260901181240 73 194 0.0 0.0 0.00 1.61 1.61 99 1015.6
20260901180739 73 208 0.0 0.0 0.00 1.61 1.61 99 1015.4
20260901180238 73 208 0.0 0.0 0.00 1.61 1.61 99 1015.2
20260901175737 74 200 0.0 0.0 0.00 1.61 1.61 99 1015.3
20260901175232 73 209 0.0 0.0 0.00 1.61 1.61 99 1015.2
20260901174727 73 206 0.0 0.0 0.00 1.61 1.61 99 1015.1
20260901174223 72 206 0.0 0.0 0.00 1.61 1.61 99 1015.3
20260901173719 72 202 0.0 0.0 0.00 1.61 1.61 99 1015.5
20260901173219 72 205 0.0 0.0 0.00 1.61 1.61 99 1015.5
20260901172716 73 197 0.0 0.0 0.00 1.61 1.61 99 1015.3
20260901172214 72 199 0.0 0.0 0.00 1.61 1.61 99 1015.5
20260901171712 72 202 0.0 0.0 0.00 1.61 1.61 99 1015.5
20260901171207 72 264 1.0 2.0 0.00 1.61 1.61 99 1015.3
20260901170706 72 203 0.0 0.0 0.00 1.61 1.61 99 1015.3
20260901170201 72 202 0.0 0.0 0.00 1.61 1.61 99 1015.5
20260901165700 72 203 1.0 1.0 0.00 1.61 1.61 99 1015.5
20260901165155 72 205 0.0 0.0 0.00 1.61 1.61 99 1015.6
20260901164651 72 211 0.0 0.0 0.00 1.61 1.61 99 1015.5
20260901164146 72 211 0.0 0.0 0.00 1.61 1.61 99 1015.5
20260901163641 71 199 0.0 0.0 0.00 1.61 1.61 99 1015.7
20260901163140 71 240 0.0 0.0 0.00 1.61 1.61 99 1015.5
20260901162636 71 205 0.0 0.0 0.07 1.61 1.61 99 1015.7
20260901162135 71 203 0.0 0.0 0.07 1.61 1.61 99 1016.2
20260901161634 71 204 0.0 0.0 0.00 1.60 1.60 99 1016.0
20260901161133 71 198 0.0 0.0 0.00 1.60 1.60 99 1015.9
20260901160630 71 198 0.0 0.0 0.00 1.60 1.60 99 1015.8
20260901160125 71 204 0.0 0.0 0.00 1.60 1.60 99 1016.0
20260901155624 71 203 0.0 0.0 0.00 1.60 1.60 99 1016.1
20260901155119 71 199 0.0 0.0 0.05 1.60 1.60 99 1016.5
20260901154614 71 205 0.0 0.0 0.12 1.60 1.60 99 1016.9
20260901154109 71 195 0.0 0.0 0.19 1.59 1.59 99 1016.6
20260901153604 71 212 0.0 0.0 0.24 1.58 1.58 99 1016.7
20260901153103 71 214 0.0 0.0 0.12 1.55 1.55 99 1016.5
20260901152558 71 199 0.0 0.0 0.12 1.53 1.53 99 1016.6
20260901152056 71 210 0.0 0.0 0.12 1.52 1.52 99 1016.8
20260901151553 70 201 0.0 0.0 0.12 1.51 1.51 99 1016.9
20260901151047 71 205 0.0 0.0 0.12 1.50 1.50 99 1016.9
20260901150545 71 203 0.0 1.0 0.07 1.48 1.48 99 1016.9
20260901150043 71 200 0.0 0.0 0.00 1.47 1.47 99 1016.6
20260901145537 71 202 0.0 0.0 0.00 1.47 1.47 99 1016.7
20260901145036 70 218 0.0 0.0 0.00 1.47 1.47 99 1016.5
20260901144532 70 204 0.0 0.0 0.07 1.47 1.47 99 1016.7
20260901144027 70 202 0.0 0.0 0.07 1.47 1.47 99 1016.7
20260901143522 70 204 0.0 0.0 0.00 1.46 1.46 99 1016.6
20260901143014 70 202 0.0 0.0 0.05 1.46 1.46 99 1016.6
20260901142513 70 201 0.0 0.0 0.12 1.46 1.46 99 1016.9
20260901142009 70 209 0.0 0.0 0.12 1.45 1.45 99 1017.0
20260901141508 70 202 0.0 0.0 0.05 1.44 1.44 99 1016.7
20260901141004 70 195 0.0 0.0 0.00 1.43 1.43 99 1016.7
20260901140502 70 209 0.0 0.0 0.12 1.43 1.43 99 1016.5
20260901135956 70 198 0.0 1.0 1.56 1.42 1.42 99 1016.9
20260901135455 70 170 1.0 1.0 1.37 1.38 1.38 99 1016.8
20260901134952 70 226 0.0 0.0 0.00 1.15 1.15 99 1017.3
20260901134448 70 200 0.0 0.0 0.00 1.15 1.15 99 1016.8
20260901133948 70 202 0.0 0.0 0.00 1.15 1.15 99 1016.7
20260901133446 70 203 0.0 0.0 0.00 1.15 1.15 99 1016.8
20260901132946 70 203 0.0 0.0 0.00 1.15 1.15 99 1016.9
20260901132446 70 202 0.0 0.0 0.00 1.15 1.15 99 1016.7
20260901131945 70 200 0.0 0.0 0.00 1.15 1.15 99 1016.7
20260901131444 70 202 0.0 0.0 0.00 1.15 1.15 99 1016.5
20260901130941 70 203 0.0 0.0 0.00 1.15 1.15 99 1016.6
20260901130435 70 202 0.0 0.0 0.00 1.15 1.15 99 1016.7
20260901125933 70 201 0.0 0.0 0.00 1.15 1.15 99 1016.8
20260901125433 70 208 0.0 0.0 0.00 1.15 1.15 99 1016.6
20260901124933 70 206 0.0 0.0 0.00 1.15 1.15 99 1016.8
20260901124428 70 198 0.0 0.0 0.00 1.15 1.15 99 1016.6
20260901123923 70 202 0.0 0.0 0.00 1.15 1.15 99 1016.6
20260901123418 70 202 0.0 0.0 0.00 1.15 1.15 99 1016.6
20260901122916 70 199 0.0 0.0 0.00 1.15 1.15 99 1016.6
20260901122411 70 202 0.0 0.0 0.00 1.15 1.15 99 1016.6
20260901121910 69 204 0.0 0.0 0.00 1.15 1.15 99 1016.6
20260901121405 69 201 0.0 0.0 0.00 1.15 1.15 99 1016.7
20260901120900 69 200 0.0 0.0 0.00 1.15 1.15 99 1016.9
20260901120355 69 202 0.0 0.0 0.00 1.15 1.15 99 1016.6
20260901115850 69 198 0.0 0.0 0.00 1.15 1.15 99 1016.8
20260901115350 69 199 0.0 0.0 0.00 1.15 1.15 99 1016.6
20260901114849 69 196 0.0 0.0 0.00 1.15 1.15 99 1017.0
20260901114349 69 204 0.0 0.0 0.07 1.15 1.15 99 1016.9
20260901113847 69 204 0.0 0.0 0.07 1.15 1.15 99 1017.0
20260901113346 69 207 0.0 0.0 0.00 1.14 1.14 99 1017.1
20260901112841 69 203 0.0 0.0 0.00 1.14 1.14 99 1016.9
20260901112336 69 206 0.0 0.0 0.05 1.14 1.14 99 1016.5
20260901111831 69 200 0.0 0.0 0.05 1.14 1.14 99 1016.5
20260901111329 69 201 0.0 0.0 0.00 1.13 1.13 99 1016.3
20260901110828 69 199 0.0 0.0 0.00 1.13 1.13 99 1016.6
20260901110324 69 199 0.0 0.0 0.00 1.13 1.13 99 1016.7
20260901105820 69 202 0.0 0.0 0.00 1.13 1.13 99 1016.9
20260901105320 69 204 0.0 0.0 0.00 1.13 1.13 99 1016.9
20260901104817 68 205 0.0 0.0 0.00 1.13 1.13 99 1016.9
20260901104312 68 203 0.0 0.0 0.00 1.13 1.13 99 1016.8
20260901103807 68 203 0.0 0.0 0.00 1.13 1.13 99 1016.9
20260901103306 68 202 0.0 0.0 0.00 1.13 1.13 99 1016.8
20260901102801 68 201 0.0 0.0 0.00 1.13 1.13 99 1016.9
20260901102256 68 201 0.0 0.0 0.00 1.13 1.13 99 1017.0
20260901101752 68 201 0.0 0.0 0.00 1.13 1.13 99 1016.8
20260901101251 68 209 0.0 0.0 0.00 1.13 1.13 99 1016.8
20260901100751 68 202 0.0 0.0 0.00 1.13 1.13 99 1016.7
20260901100246 68 202 0.0 0.0 0.00 1.13 1.13 99 1016.7
20260901095744 68 203 0.0 0.0 0.00 1.13 1.13 99 1016.5
20260901095242 68 202 0.0 0.0 0.00 1.13 1.13 99 1016.6
20260901094737 68 202 0.0 0.0 0.00 1.13 1.13 99 1016.7
20260901094231 68 207 0.0 0.0 0.00 1.13 1.13 99 1016.8
20260901093727 68 206 0.0 0.0 0.00 1.13 1.13 99 1016.9
20260901093225 68 202 0.0 0.0 0.00 1.13 1.13 99 1016.7
20260901092722 68 202 0.0 0.0 0.00 1.13 1.13 99 1016.5
20260901092218 68 205 0.0 0.0 0.00 1.13 1.13 99 1016.6
20260901091713 68 203 0.0 0.0 0.00 1.13 1.13 99 1016.9
20260901091208 68 202 0.0 0.0 0.00 1.13 1.13 99 1016.7
20260901090702 68 203 0.0 0.0 0.00 1.13 1.13 99 1016.7
20260901090158 68 203 0.0 0.0 0.00 1.13 1.13 99 1017.0
20260901085654 68 201 0.0 0.0 0.00 1.13 1.13 99 1016.9
20260901085149 68 202 0.0 0.0 0.00 1.13 1.13 99 1016.8
20260901084645 68 203 0.0 0.0 0.00 1.13 1.13 99 1016.9
20260901084141 68 205 0.0 0.0 0.00 1.13 1.13 99 1016.9
20260901083635 68 208 0.0 0.0 0.00 1.13 1.13 99 1017.0
20260901083134 68 201 0.0 0.0 0.00 1.13 1.13 99 1017.0
20260901082633 68 203 0.0 0.0 0.00 1.13 1.13 99 1017.1
20260901082130 68 203 0.0 0.0 0.00 1.13 1.13 99 1017.0
20260901081625 68 199 0.0 0.0 0.00 1.13 1.13 99 1017.0
20260901081120 68 205 0.0 0.0 0.00 1.13 1.13 99 1017.0
20260901080620 68 199 0.0 0.0 0.00 1.13 1.13 99 1017.0
20260901080118 68 199 0.0 0.0 0.00 1.13 1.13 99 1017.2
20260901075614 68 200 0.0 0.0 0.00 1.13 1.13 99 1017.3
20260901075114 68 200 0.0 0.0 0.00 1.13 1.13 99 1017.3
20260901074607 68 200 0.0 0.0 0.00 1.13 1.13 99 1017.4
20260901074103 68 200 0.0 0.0 0.00 1.13 1.13 99 1017.4
20260901073559 68 198 0.0 0.0 0.00 1.13 1.13 99 1017.4
20260901073059 68 200 0.0 0.0 0.00 1.13 1.13 99 1017.4
20260901072555 68 200 0.0 0.0 0.00 1.13 1.13 99 1017.3
20260901072050 68 199 0.0 0.0 0.00 1.13 1.13 99 1017.3
20260901071549 68 192 0.0 0.0 0.00 1.13 1.13 99 1017.3
20260901071048 68 197 0.0 0.0 0.00 1.13 1.13 99 1017.4
20260901070537 68 200 0.0 0.0 0.00 1.13 1.13 99 1017.5
20260901070033 68 198 0.0 0.0 0.00 1.13 1.13 99 1017.5
20260901065527 68 200 0.0 0.0 0.00 1.13 1.13 99 1017.6
20260901065021 68 201 0.0 0.0 0.00 1.13 1.13 99 1017.5
20260901064518 68 200 0.0 0.0 0.00 1.13 1.13 99 1017.4
20260901064015 68 193 0.0 0.0 0.00 1.13 1.13 99 1017.4
20260901063506 68 200 0.0 0.0 0.00 1.13 1.13 99 1017.7
20260901063002 68 200 0.0 0.0 0.00 1.13 1.13 99 1017.6
20260901062457 68 201 0.0 0.0 0.00 1.13 1.13 99 1017.7
20260901061953 68 199 0.0 0.0 0.00 1.13 1.13 99 1017.7
20260901061449 68 195 0.0 0.0 0.00 1.13 1.13 99 1017.9
20260901060948 68 202 0.0 0.0 0.07 1.13 1.13 99 1017.9
20260901060438 68 199 0.0 0.0 0.24 1.13 1.13 99 1017.7
20260901055937 68 200 0.0 0.0 0.54 1.11 1.11 99 1018.0
20260901055434 68 201 0.0 0.0 0.42 1.08 1.08 99 1017.7
20260901054930 68 200 0.0 0.0 0.24 1.01 1.01 99 1018.0
20260901054428 68 195 0.0 0.0 0.50 1.00 1.00 99 1017.7
20260901053923 68 198 0.0 0.0 0.78 0.95 0.95 99 1018.0
20260901053418 68 195 0.0 0.0 0.94 0.90 0.90 99 1017.8
20260901052914 68 201 0.0 0.0 0.78 0.80 0.80 99 1018.2
20260901052409 68 199 0.0 0.0 0.90 0.74 0.74 99 1018.1
20260901051908 68 199 0.0 0.0 0.73 0.65 0.65 99 1018.2
20260901051403 68 200 0.0 0.0 1.13 0.58 0.58 99 1018.1
20260901050858 68 199 0.0 0.0 0.97 0.52 0.52 99 1018.1
20260901050354 68 202 0.0 0.0 0.17 0.38 0.38 99 1018.2
20260901045848 68 201 0.0 0.0 0.12 0.36 0.36 99 1018.3
20260901045348 68 202 0.0 0.0 0.24 0.34 0.34 99 1018.2
20260901044843 68 190 0.0 0.0 0.59 0.34 0.34 99 1018.3
20260901044340 68 198 0.0 0.0 0.61 0.28 0.28 99 1018.4
20260901043836 68 201 0.0 0.0 0.59 0.23 0.23 99 1018.4
20260901043331 68 202 0.0 0.0 0.42 0.17 0.17 99 1018.4
20260901042830 68 198 0.0 0.0 0.12 0.11 0.11 99 1018.4
20260901042325 68 197 0.0 0.0 0.14 0.09 0.09 99 1018.5
20260901041820 68 200 0.0 0.0 0.19 0.08 0.08 99 1018.6
20260901041316 68 200 0.0 0.0 0.28 0.07 0.07 99 1018.8
20260901040810 68 194 0.0 0.0 0.17 0.03 0.03 99 1018.4
20260901040309 69 199 0.0 0.0 0.17 0.01 0.01 99 1018.3
20260901035808 69 200 0.0 0.0 0.19 0.06 0.06 99 1018.7
20260901035307 69 199 0.0 0.0 0.12 0.04 0.04 98 1018.5
20260901034806 69 200 0.0 0.0 0.12 0.03 0.03 98 1018.4
20260901034301 69 198 0.0 0.0 0.00 0.01 0.01 98 1018.7
20260901033756 69 204 0.0 0.0 0.05 0.01 0.01 97 1018.5
20260901033255 69 197 0.0 0.0 0.00 0.00 0.00 97 1018.5
20260901032754 69 198 0.0 0.0 0.00 0.00 0.00 97 1018.5
20260901032253 69 202 0.0 0.0 0.00 0.00 0.00 96 1018.7
20260901031749 69 199 0.0 0.0 0.00 0.00 0.00 96 1018.5
20260901031244 69 198 0.0 0.0 0.00 0.00 0.00 96 1018.4
20260901030739 69 198 0.0 0.0 0.00 0.00 0.00 96 1018.5
20260901030234 69 199 0.0 0.0 0.00 0.00 0.00 97 1018.8
20260901025733 69 187 0.0 0.0 0.00 0.00 0.00 97 1018.5
20260901025223 69 197 0.0 0.0 0.00 0.00 0.00 97 1018.9
20260901024723 69 193 0.0 0.0 0.00 0.00 0.00 97 1018.8
20260901024223 69 194 0.0 0.0 0.00 0.00 0.00 97 1018.8
20260901023721 69 197 0.0 0.0 0.00 0.00 0.00 97 1018.9
20260901023216 69 196 0.0 0.0 0.00 0.00 0.00 97 1019.1
20260901022711 69 199 0.0 0.0 0.00 0.00 0.00 97 1019.0
20260901022206 69 198 0.0 0.0 0.00 0.00 0.00 97 1019.1
20260901021702 69 199 0.0 0.0 0.00 0.00 0.00 97 1019.2
20260901021156 69 200 0.0 0.0 0.00 0.00 0.00 97 1019.0
20260901020652 69 197 0.0 0.0 0.00 0.00 0.00 97 1019.1
20260901020148 69 199 0.0 0.0 0.00 0.00 0.00 96 1019.0
20260901015643 69 196 0.0 0.0 0.00 0.00 0.00 96 1019.1
20260901015142 69 196 0.0 0.0 0.00 0.00 0.00 96 1019.0
20260901014637 69 197 0.0 0.0 0.00 0.00 0.00 96 1019.0
20260901014133 69 196 0.0 0.0 0.00 0.00 0.00 96 1019.0
20260901013629 69 191 0.0 0.0 0.00 0.00 0.00 96 1019.2
20260901013125 69 200 0.0 0.0 0.00 0.00 0.00 96 1019.1
20260901012625 69 200 0.0 0.0 0.00 0.00 0.00 96 1019.3
20260901012120 69 198 0.0 0.0 0.00 0.00 0.00 97 1019.3
20260901011616 69 200 0.0 0.0 0.00 0.00 0.00 97 1019.2
20260901011114 69 198 0.0 0.0 0.00 0.00 0.00 97 1019.2
20260901010610 69 199 0.0 0.0 0.00 0.00 0.00 97 1019.1
20260901010109 69 197 0.0 0.0 0.00 0.00 0.00 97 1019.1
20260901005603 69 190 0.0 0.0 0.00 0.00 0.00 97 1019.0
20260901005059 69 199 0.0 0.0 0.00 0.00 0.00 97 1019.1
20260901004558 69 198 0.0 0.0 0.00 0.00 0.00 97 1019.0
20260901004053 69 196 0.0 0.0 0.00 0.00 0.00 97 1018.9
20260901003548 69 189 0.0 0.0 0.00 0.00 0.00 97 1018.9
20260901003046 69 198 0.0 0.0 0.00 0.00 0.00 97 1019.0
20260901002546 69 200 0.0 0.0 0.00 0.00 0.00 96 1019.1
20260901002041 69 200 0.0 0.0 0.00 0.00 0.00 96 1019.0
20260901001536 69 200 0.0 0.0 0.00 0.00 0.00 96 1018.9
20260901001031 70 190 0.0 0.0 0.00 0.00 0.00 96 1019.0
20260901000526 70 190 0.0 0.0 0.00 0.00 0.00 96 1018.8
20260901000022 70 195 0.0 0.0 0.00 0.00 0.00 96 1018.7
20260831235515 70 194 0.0 0.0 0.00 0.00 0.00 96 1018.8
20260831235011 70 188 0.0 0.0 0.00 0.00 0.00 95 1019.0
20260831234505 70 195 0.0 0.0 0.00 0.00 0.00 94 1019.1
20260831234001 70 195 0.0 0.0 0.00 0.00 0.00 94 1019.0
20260831233455 71 195 0.0 0.0 0.00 0.00 0.00 93 1019.1
20260831232951 71 198 0.0 0.0 0.00 0.00 0.00 91 1019.2
20260831232447 71 196 0.0 0.0 0.00 0.00 0.00 91 1019.2
20260831231942 71 196 0.0 0.0 0.00 0.00 0.00 90 1019.2
20260831231439 71 197 0.0 0.0 0.00 0.00 0.00 89 1019.0
20260831230934 72 191 0.0 0.0 0.00 0.00 0.00 88 1019.1
20260831230429 72 195 0.0 0.0 0.00 0.00 0.00 86 1019.1
20260831225923 72 202 0.0 0.0 0.00 0.00 0.00 85 1019.2
20260831225419 73 198 0.0 0.0 0.00 0.00 0.00 85 1019.3
20260831224914 73 200 0.0 0.0 0.00 0.00 0.00 85 1019.2
20260831224413 73 195 0.0 0.0 0.00 0.00 0.00 84 1019.2
20260831223908 73 200 0.0 0.0 0.00 0.00 0.00 84 1019.2
20260831223404 73 194 0.0 0.0 0.00 0.00 0.00 85 1019.5
20260831222900 73 189 0.0 0.0 0.00 0.00 0.00 84 1019.1